HB9FVK-10 Weather Reports


Display with metric or nautical units.
time (UTC)temp
F
wind
direction
speed
MPH
gust
MPH
rain 1hr
in
rain 24hr
in
rain mn
in
humidity
%
barometer
mb
20260508214020 54 195 8.0 15.0 0.00 0.00 0.00 92 1021.4
20260508213019 54 202 8.0 12.0 0.00 0.00 0.00 92 1021.2
20260508212018 55 206 6.0 8.0 0.00 0.00 0.00 92 1021.3
20260508211017 55 218 6.0 11.0 0.00 0.00 0.00 91 1021.5
20260508210116 55 154 3.0 6.0 0.00 0.00 0.00 88 1021.8
20260508205114 55 222 2.0 5.0 0.00 0.00 0.00 87 1021.9
20260508204113 56 251 5.0 11.0 0.00 0.00 0.00 84 1022.0
20260508203111 56 251 7.0 11.0 0.00 0.00 0.00 82 1021.9
20260508202110 57 232 5.0 9.0 0.00 0.00 0.00 81 1021.9
20260508201109 56 246 4.0 6.0 0.00 0.00 0.00 82 1021.7
20260508200109 56 266 4.0 6.0 0.00 0.00 0.00 80 1021.5
20260508195107 56 251 5.0 11.0 0.00 0.00 0.00 78 1021.2
20260508194126 54 249 1.0 2.0 0.00 0.00 0.00 87 1020.9
20260508193104 55 219 3.0 4.0 0.00 0.00 0.00 84 1020.3
20260508192103 55 234 2.0 3.0 0.00 0.00 0.00 82 1020.0
20260508191102 57 285 4.0 6.0 0.00 0.00 0.00 76 1019.9
20260508185119 58 10 2.0 5.0 0.00 0.00 0.00 69 1019.1
20260508184057 56 28 4.0 7.0 0.00 0.00 0.00 78 1019.1
20260508183056 57 63 3.0 7.0 0.00 0.00 0.00 72 1019.6
20260508182135 58 313 4.0 7.0 0.00 0.00 0.00 75 1019.9
20260508181053 56 340 4.0 8.0 0.00 0.00 0.00 84 1019.6
20260508180053 56 320 3.0 6.0 0.00 0.00 0.00 83 1019.5
20260508175051 57 295 5.0 7.0 0.00 0.00 0.00 80 1019.4
20260508174049 59 268 7.0 10.0 0.00 0.00 0.00 75 1019.3
20260508173048 59 265 7.0 12.0 0.00 0.00 0.00 74 1018.8
20260508172047 61 268 9.0 17.0 0.00 0.00 0.00 68 1018.7
20260508171045 64 238 10.0 18.0 0.00 0.00 0.00 59 1018.5
20260508170045 68 202 7.0 14.0 0.00 0.00 0.00 49 1018.0
20260508165043 68 106 4.0 5.0 0.00 0.00 0.00 49 1017.7
20260508164122 68 102 4.0 5.0 0.00 0.00 0.00 46 1017.5
20260508163041 68 98 5.0 7.0 0.00 0.00 0.00 45 1017.6
20260508162040 69 110 5.0 7.0 0.00 0.00 0.00 46 1017.5
20260508161038 69 97 4.0 6.0 0.00 0.00 0.00 43 1017.5
20260508160057 69 95 4.0 6.0 0.00 0.00 0.00 43 1017.6
20260508155057 70 96 4.0 6.0 0.00 0.00 0.00 43 1017.7
20260508154034 71 78 4.0 8.0 0.00 0.00 0.00 39 1017.6
20260508153033 71 102 4.0 8.0 0.00 0.00 0.00 40 1017.6
20260508152032 70 129 3.0 6.0 0.00 0.00 0.00 41 1017.5
20260508151031 71 95 6.0 9.0 0.00 0.00 0.00 39 1017.6
20260508150031 71 111 6.0 9.0 0.00 0.00 0.00 40 1017.8
20260508145028 72 118 4.0 11.0 0.00 0.00 0.00 38 1017.9
20260508144026 72 173 4.0 6.0 0.00 0.00 0.00 37 1018.0
20260508143025 72 149 5.0 7.0 0.00 0.00 0.00 38 1017.9
20260508142024 70 102 3.0 7.0 0.00 0.00 0.00 41 1018.0
20260508141023 70 105 6.0 10.0 0.00 0.00 0.00 42 1018.2
20260508140022 71 14 3.0 3.0 0.00 0.00 0.00 40 1018.2
20260508135020 70 153 3.0 8.0 0.00 0.00 0.00 39 1018.3
20260508134019 70 45 5.0 8.0 0.00 0.00 0.00 40 1018.3
20260508133018 71 31 4.0 7.0 0.00 0.00 0.00 41 1018.4
20260508132017 70 128 4.0 7.0 0.00 0.00 0.00 42 1018.7
20260508131116 70 184 3.0 7.0 0.00 0.00 0.00 42 1018.8
20260508130115 70 116 6.0 11.0 0.00 0.00 0.00 43 1018.8
20260508125217 70 148 3.0 4.0 0.00 0.00 0.00 42 1018.9
20260508124112 68 106 4.0 6.0 0.00 0.00 0.00 42 1019.1
20260508123111 68 40 6.0 7.0 0.00 0.00 0.00 43 1019.1
20260508122110 67 271 3.0 4.0 0.00 0.00 0.00 40 1019.1
20260508121109 67 329 4.0 6.0 0.00 0.00 0.00 42 1019.1
20260508120107 67 21 4.0 7.0 0.00 0.00 0.00 46 1019.2
20260508115106 67 298 3.0 6.0 0.00 0.00 0.00 47 1019.3
20260508114105 67 324 2.0 6.0 0.00 0.00 0.00 47 1019.3
20260508113104 67 312 1.0 3.0 0.00 0.00 0.00 49 1019.4
20260508112103 66 337 4.0 4.0 0.00 0.00 0.00 50 1019.5
20260508111101 66 74 3.0 9.0 0.00 0.00 0.00 52 1019.5
20260508110100 66 35 3.0 6.0 0.00 0.00 0.00 53 1019.7
20260508105100 66 26 4.0 6.0 0.00 0.00 0.00 53 1019.7
20260508104058 65 160 4.0 5.0 0.00 0.00 0.00 57 1019.8
20260508103056 64 136 2.0 4.0 0.00 0.00 0.00 57 1020.1
20260508102055 63 341 2.0 5.0 0.00 0.00 0.00 58 1020.0
20260508101114 64 187 1.0 4.0 0.00 0.00 0.00 57 1020.1
20260508100053 62 223 1.0 2.0 0.00 0.00 0.00 58 1020.1
20260508095113 61 107 1.0 3.0 0.00 0.00 0.00 61 1020.2
20260508094051 61 2 2.0 4.0 0.00 0.00 0.00 60 1020.3
20260508093049 61 46 3.0 6.0 0.00 0.00 0.00 61 1020.5
20260508092048 61 58 2.0 4.0 0.00 0.00 0.00 61 1020.6
20260508091050 61 53 3.0 4.0 0.00 0.00 0.00 63 1020.6
20260508090046 60 112 3.0 6.0 0.00 0.00 0.00 65 1020.6
20260508085045 60 119 4.0 5.0 0.00 0.00 0.00 64 1020.7
20260508084043 58 130 2.0 4.0 0.00 0.00 0.00 68 1020.6
20260508083042 58 129 3.0 5.0 0.00 0.00 0.00 69 1020.6
20260508082041 58 5 2.0 4.0 0.00 0.00 0.00 68 1020.6
20260508081040 58 100 4.0 6.0 0.00 0.00 0.00 68 1020.5
20260508080039 57 87 2.0 4.0 0.00 0.00 0.00 70 1020.6
20260508075038 58 80 3.0 6.0 0.00 0.00 0.00 68 1020.5
20260508074036 56 138 2.0 4.0 0.00 0.00 0.00 71 1020.7
20260508073055 56 70 3.0 6.0 0.00 0.00 0.00 73 1020.6
20260508072034 54 45 3.0 5.0 0.00 0.00 0.00 76 1020.7
20260508071033 53 45 2.0 3.0 0.00 0.00 0.00 76 1020.7
20260508070031 53 29 2.0 3.0 0.00 0.00 0.00 76 1020.5
20260508065051 53 53 2.0 5.0 0.00 0.00 0.00 79 1020.5
20260508064029 53 118 1.0 3.0 0.00 0.00 0.00 77 1020.5
20260508063048 53 121 2.0 5.0 0.00 0.00 0.00 78 1020.6
20260508062027 50 131 1.0 2.0 0.00 0.00 0.00 82 1020.6
20260508061107 50 75 1.0 3.0 0.00 0.00 0.00 82 1020.5
20260508060025 50 108 3.0 4.0 0.00 0.00 0.00 82 1020.4
20260508055023 50 106 4.0 7.0 0.00 0.00 0.00 84 1020.5
20260508054022 49 103 5.0 10.0 0.00 0.00 0.00 86 1020.5
20260508053041 47 39 2.0 5.0 0.00 0.00 0.00 88 1020.5
20260508052020 46 152 2.0 5.0 0.00 0.00 0.00 89 1020.3
20260508051039 46 112 3.0 5.0 0.00 0.00 0.00 90 1020.3
20260508050037 45 137 6.0 8.0 0.00 0.00 0.00 91 1020.3
20260508045016 45 121 3.0 5.0 0.00 0.00 0.00 92 1020.4
20260508044116 44 125 4.0 7.0 0.00 0.00 0.00 95 1020.2
20260508043114 44 128 3.0 5.0 0.00 0.00 0.00 94 1020.1
20260508042133 44 132 5.0 6.0 0.00 0.00 0.00 94 1020.1
20260508041131 44 102 3.0 6.0 0.00 0.00 0.00 94 1020.1
20260508040111 44 141 3.0 5.0 0.00 0.00 0.00 94 1019.9
20260508035109 44 175 2.0 4.0 0.00 0.00 0.00 93 1020.0
20260508034108 44 151 4.0 8.0 0.00 0.00 0.00 94 1019.9
20260508033128 44 151 4.0 7.0 0.00 0.00 0.00 94 1020.1
20260508032106 44 113 4.0 6.0 0.00 0.00 0.00 94 1020.0
20260508031104 44 169 3.0 6.0 0.00 0.00 0.00 94 1020.0
20260508030104 44 115 4.0 7.0 0.00 0.00 0.00 94 1019.7
20260508025102 44 141 4.0 5.0 0.00 0.00 0.00 95 1019.7
20260508024101 44 135 3.0 5.0 0.00 0.00 0.00 94 1019.6
20260508023121 45 133 4.0 6.0 0.00 0.00 0.00 94 1019.7
20260508022058 45 136 3.0 4.0 0.00 0.00 0.00 94 1019.6
20260508021058 45 128 3.0 4.0 0.00 0.00 0.00 94 1019.6
20260508020056 45 144 3.0 3.0 0.00 0.00 0.00 94 1019.6
20260508015055 45 120 2.0 3.0 0.00 0.00 0.00 93 1019.7
20260508014054 45 142 4.0 5.0 0.00 0.00 0.00 94 1019.7
20260508013114 45 118 3.0 6.0 0.00 0.00 0.00 93 1019.6
20260508012052 45 136 3.0 4.0 0.00 0.00 0.00 93 1019.7
20260508011111 46 146 3.0 4.0 0.00 0.00 0.00 93 1019.7
20260508010049 46 141 4.0 4.0 0.00 0.00 0.00 92 1019.6
20260508005047 46 142 2.0 4.0 0.00 0.00 0.00 92 1019.6
20260508004047 46 140 3.0 5.0 0.00 0.00 0.00 92 1019.6
20260508003107 46 138 3.0 3.0 0.00 0.00 0.00 91 1019.6
20260508002044 47 149 3.0 4.0 0.00 0.00 0.00 91 1019.5
20260508001044 47 110 4.0 5.0 0.00 0.00 0.00 91 1019.6
20260508000042 47 110 4.0 6.0 0.00 0.00 0.00 91 1019.6
20260507235041 47 119 4.0 4.0 0.00 0.00 0.00 90 1019.6
20260507234041 48 150 3.0 3.0 0.00 0.00 0.00 90 1019.7
20260507233038 48 134 3.0 4.0 0.00 0.00 0.00 90 1019.7
20260507232057 48 127 3.0 4.0 0.00 0.00 0.00 91 1019.8
20260507231036 49 113 3.0 4.0 0.00 0.00 0.00 90 1020.0
20260507230035 49 158 3.0 4.0 0.00 0.00 0.00 90 1019.9
20260507225034 49 116 2.0 2.0 0.00 0.00 0.00 90 1020.0
20260507224033 49 104 1.0 2.0 0.00 0.00 0.00 89 1020.0
20260507223031 50 120 2.0 3.0 0.00 0.00 0.00 88 1020.1
20260507222030 51 94 2.0 4.0 0.00 0.00 0.00 88 1020.1
20260507221029 51 70 2.0 3.0 0.00 0.00 0.00 88 1020.2
20260507220047 51 125 2.0 2.0 0.00 0.00 0.00 87 1020.2
20260507215026 51 104 2.0 3.0 0.00 0.00 0.00 86 1020.2